Dewpoint
29 27 26 27 26 26 24 22 21 23 22 24 22 23 21 20 22 19 21 22 22 24 18 17 19 19 20 21 23 24 26 26 26 27 28 29 29 30
28 26 25 25 22 22 24 22 20 20 19 22 22 20 20 20 20 21 20 19 20 22 18 19 18 17 17 19 21 22 23 23 23 25 26 27 28 28
26 25 24 22 21 21 22 21 20 20 19 21 20 20 20 19 19 19 18 18 16 17 21 17 19 17 17 18 18 19 19 20 21 22 23 24 26 27
25 24 22 19 23 23 21 21 20 21 19 18 17 19 17 18 17 17 17 14 16 13 20 22 20 20 19 18 18 17 16 18 18 20 22 23 23 24
26 24 22 22 24 24 21 20 21 18 19 17 18 17 17 15 15 16 15 15 12 12 13 15 18 18 18 16 18 20 19 20 20 20 20 22 22 23
25 25 24 25 26 24 21 21 19 18 19 18 16 14 14 15 15 14 12 13 14 14 14 17 17 14 13 13 16 15 15 16 17 20 20 21 21 21
24 25 26 25 23 19 22 23 21 22 20 16 14 14 13 13 13 14 13 14 14 15 15 14 12 13 14 15 14 14 14 17 20 19 19 19 20 21
27 26 24 22 16 14 15 17 18 18 18 17 16 14 15 15 16 14 14 13 11 14 12 11 13 15 15 16 13 13 16 18 17 17 18 18 18 19
27 24 22 21 21 21 19 19 20 19 18 18 17 17 17 17 16 15 14 13 12 12 13 14 16 15 15 13 14 16 14 14 15 16 17 18 17 19
26 24 22 20 23 21 19 19 20 22 23 21 21 20 19 18 16 15 14 14 15 16 15 13 14 13 14 14 12 11 12 12 15 15 14 16 16 18
26 24 22 22 19 16 15 16 17 19 20 19 19 17 17 17 15 15 15 13 12 13 15 12 12 12 11 11 11 9 13 10 10 13 13 15 16 18
22 21 20 20 15 13 13 13 14 17 14 14 14 15 16 17 18 19 18 16 16 12 12 10 9 11 8 8 11 10 11 11 11 11 12 13 15 17
18 19 18 17 14 11 9 9 12 12 12 12 14 17 19 17 16 17 18 17 15 12 10 10 12 12 11 11 9 10 11 12 12 13 14 12 14 16
16 20 18 16 13 10 9 9 11 11 11 14 16 14 13 13 15 14 14 14 15 14 16 16 14 14 10 9 9 9 11 12 14 12 12 14 15 14
19 19 17 14 10 9 9 11 11 11 13 13 11 10 12 13 12 11 13 13 14 14 14 13 13 10 11 11 9 10 10 10 10 11 12 14 16 18
16 14 13 12 12 12 12 14 13 14 14 8 10 12 12 9 8 10 10 10 10 9 9 10 11 12 10 10 9 8 7 6 8 12 15 14 12 13
18 17 14 14 14 14 13 15 13 11 9 10 10 9 8 8 9 9 8 8 6 6 7 8 10 10 9 8 6 6 7 11 13 10 8 8 11 12
18 17 15 17 18 14 12 12 11 10 10 10 8 8 8 8 8 6 7 6 6 5 6 6 6 4 3 4 5 6 7 6 5 6 8 10 10 11
12 13 15 16 17 15 13 12 10 11 10 9 9 9 9 7 5 6 6 5 4 4 4 3 2 3 3 1 2 2 3 4 8 9 9 11 12 11
13 14 15 15 15 14 12 13 13 12 10 10 9 7 7 8 7 6 4 3 4 3 1 2 2 2 3 2 3 4 5 4 5 9 9 10 11 11
15 15 16 20 18 15 14 14 13 11 10 9 10 10 8 7 5 4 4 4 2 1 1 1 2 4 3 4 3 0 1 2 4 8 12 11 10 11
17 18 17 16 16 15 14 13 11 10 10 10 7 6 5 5 5 4 2 1 1 1 1 1 1 1 1 1 0 0 0 3 4 6 8 11 12 10
19 18 18 16 15 15 15 14 12 9 6 6 5 5 5 4 2 1 1 1 1 0 -1 -1 0 -1 -0 0 -1 0 1 3 3 5 8 8 11 16
Wind_Speed
9 8 11 9 8 6 6 7 3 1 1 2 4 9 7 5 3 3 5 9 15 10 7 6 11 15 18 18 17 19 19 20 23 21 21 20 20 20
9 8 9 10 8 4 5 3 2 1 2 6 6 6 5 5 6 6 8 13 12 10 4 6 9 15 17 18 18 20 19 22 21 21 21 20 20 21
11 10 12 9 4 3 3 1 1 2 5 8 8 6 4 4 5 7 10 12 10 11 14 7 12 14 15 16 19 18 21 21 21 21 20 20 20 22
11 12 10 7 2 1 1 2 3 5 4 9 8 9 7 6 4 7 8 11 11 14 15 12 14 13 14 15 15 20 20 20 21 20 18 21 23 24
11 12 8 5 4 6 4 2 1 3 6 6 8 9 8 6 8 7 10 10 11 18 19 20 19 15 15 19 18 18 18 19 14 19 22 23 24 26
11 10 11 5 3 5 4 4 2 3 7 7 7 9 8 9 9 10 12 12 14 15 19 19 17 19 19 22 20 20 20 21 22 21 25 27 28 29
10 9 12 10 10 10 7 8 10 9 8 9 9 10 10 12 11 9 12 13 16 16 13 11 16 16 14 15 20 18 25 22 22 27 30 29 28 28
13 9 11 8 8 7 6 5 4 2 3 5 7 8 10 12 11 11 12 16 13 5 19 20 17 16 13 12 21 26 23 27 29 31 29 28 28 29
12 11 11 10 10 7 7 4 3 5 6 5 7 8 11 11 12 12 13 15 18 19 20 22 15 17 13 15 22 25 29 31 30 27 28 29 33 32
9 12 12 13 10 8 4 4 4 5 12 10 10 8 10 10 11 12 15 18 17 13 14 21 17 19 14 15 24 30 29 25 25 29 33 31 33 32
9 8 7 13 12 8 4 3 7 8 6 8 10 12 14 18 18 13 15 16 18 14 9 16 15 22 19 21 16 22 22 34 33 31 32 33 34 34
12 12 9 15 11 8 3 4 7 3 8 10 11 13 15 17 20 16 14 16 14 15 2 17 20 18 14 16 13 23 19 24 29 31 33 34 34 25
14 14 11 15 12 8 4 3 4 6 8 10 12 14 12 10 13 10 6 8 13 17 18 17 19 18 16 26 20 21 20 20 20 23 26 32 33 30
9 10 16 16 11 6 5 6 6 6 9 12 12 10 11 13 9 10 13 15 14 19 17 16 18 17 22 26 28 22 20 20 18 22 24 25 27 32
8 18 19 14 10 7 8 10 10 9 13 10 9 12 13 10 10 13 14 13 14 14 14 15 16 20 20 24 28 25 26 23 22 18 23 23 22 21
14 14 12 9 7 7 6 13 12 13 12 9 12 10 8 10 14 13 14 14 15 15 14 17 17 17 21 20 23 26 24 25 25 22 21 22 23 23
10 9 7 6 8 11 13 14 11 9 7 8 7 10 12 14 13 12 13 15 18 19 18 15 14 15 17 22 25 23 26 24 20 21 25 29 25 23
7 8 9 11 11 5 4 6 6 7 4 6 9 10 12 13 13 14 15 16 18 19 19 17 18 21 21 19 21 22 21 24 25 26 26 28 30 22
4 7 11 8 4 4 5 7 7 3 5 6 9 11 11 12 16 15 15 16 18 18 18 19 20 20 24 26 20 21 28 25 27 27 24 25 29 29
6 11 11 7 5 5 5 4 4 5 6 7 9 12 13 13 14 15 15 18 18 19 21 19 17 18 21 27 31 30 26 27 25 27 29 28 27 36
14 13 9 4 2 2 1 1 2 5 6 10 11 10 10 11 14 15 16 18 19 20 22 21 19 22 22 23 23 27 24 26 31 30 31 30 32 31
6 3 2 0 1 1 2 2 4 7 7 8 9 11 12 12 13 14 16 18 19 19 21 21 20 20 20 21 27 30 30 29 28 32 34 36 30 32
9 5 3 1 3 4 3 3 4 5 8 9 10 11 11 12 13 14 17 18 19 20 21 23 20 20 21 22 27 28 32 32 30 31 27 28 34 37
Wind_Direction
112 107 113 93 74 71 47 64 33 306 29 162 114 105 77 60 48 23 324 347 317 297 286 326 342 346 345 341 342 340 338 335 332 333 331 330 328 328
124 125 114 101 89 82 101 67 68 275 265 39 4 48 54 14 321 356 353 324 310 307 266 338 335 338 339 335 333 334 329 329 329 329 328 327 326 325
135 131 95 97 122 152 139 51 243 271 270 301 330 354 354 328 315 331 331 314 319 327 327 325 324 327 327 325 321 322 325 324 324 322 323 324 326 325
138 125 121 124 82 319 71 247 39 346 323 295 312 307 325 307 314 332 321 313 321 314 321 332 328 330 326 310 315 314 314 317 315 319 327 321 317 316
132 121 140 133 195 221 169 22 157 273 272 279 298 314 298 347 347 349 314 329 329 320 332 331 321 313 324 323 318 308 312 311 332 321 317 317 315 313
131 135 127 109 11 81 94 23 304 311 318 305 304 313 341 342 357 345 335 330 333 326 313 303 315 333 327 316 312 317 315 323 317 319 316 312 309 306
107 106 93 91 83 71 60 37 28 18 356 349 337 340 333 346 336 347 331 327 313 299 299 335 323 318 304 319 311 316 318 316 317 313 311 307 305 303
144 138 120 121 109 99 101 80 63 37 2 331 322 321 321 321 336 347 332 321 317 311 336 311 301 299 310 302 318 309 312 315 312 310 306 307 305 302
152 159 155 149 135 159 178 187 221 211 207 225 261 276 295 321 333 331 311 300 295 300 301 299 303 299 313 312 312 314 311 308 304 306 307 309 305 295
157 163 162 158 159 139 75 4 308 230 221 216 227 270 284 303 293 289 296 290 287 289 297 299 313 308 318 318 310 303 299 305 311 311 303 303 302 297
154 147 168 130 139 132 106 277 278 279 282 254 265 274 282 282 286 279 273 284 291 295 310 306 319 317 312 300 289 305 316 314 307 304 304 303 302 298
173 172 164 127 140 133 144 274 275 327 14 336 312 295 281 276 275 261 263 271 297 310 355 321 315 322 312 291 313 307 299 299 301 304 303 303 301 297
169 158 157 152 148 150 174 269 315 341 316 297 282 268 260 278 285 289 280 296 292 286 300 301 300 297 284 298 300 303 300 299 298 298 299 301 298 295
161 146 151 157 154 168 205 242 245 281 279 268 271 298 302 291 298 313 294 278 267 273 284 282 288 293 298 296 298 306 300 297 298 301 296 293 295 297
105 127 141 151 164 204 224 234 246 249 250 266 296 290 281 298 315 306 291 294 291 289 293 292 289 292 287 292 298 302 306 306 296 291 297 292 293 293
120 132 150 167 184 228 231 221 224 238 251 267 270 278 309 326 309 298 310 311 307 303 299 289 285 290 296 296 299 300 298 291 295 292 296 302 301 291
166 140 160 208 223 230 237 236 224 237 278 283 310 333 318 305 306 319 317 315 305 303 305 302 298 302 299 299 296 290 291 291 297 309 308 298 293 289
165 181 217 230 225 234 283 296 294 283 307 360 318 311 311 314 318 317 307 302 301 303 305 314 317 313 303 290 282 302 307 309 305 300 295 290 290 287
173 234 242 241 220 230 260 277 285 335 25 336 324 318 319 315 308 301 303 304 304 304 308 313 309 305 305 304 307 304 301 298 297 295 291 286 291 294
224 240 251 246 237 246 265 301 349 346 332 327 313 304 296 293 300 303 307 303 303 307 306 303 303 305 302 304 304 301 297 302 298 297 298 293 283 285
219 232 250 260 249 277 290 311 318 301 300 290 286 294 307 309 302 301 301 303 307 304 301 302 302 301 300 299 298 302 301 297 297 296 299 297 297 298
252 242 227 66 352 312 266 261 275 288 303 317 315 311 307 304 301 306 307 304 301 299 299 302 307 306 307 305 300 302 303 304 298 292 292 287 287 292
217 219 140 51 13 346 324 333 335 332 321 312 305 302 309 310 308 305 302 300 301 303 305 304 308 307 302 302 300 300 302 305 309 307 300 298 296 291